Palm Springs, CA

1:45 AM PDT on June 25, 2017 (GMT -0700)
Palm Springs International

Weather History for KPSP - February, 2014

Change the Weather History Date:

Friday, February 28, 2014

  Actual Average Record
Temperature  
Mean Temperature 65 °F 63 °F  
Max Temperature 72 °F 75 °F 94 °F (1986)
Min Temperature 57 °F 50 °F 28 °F (1962)
Degree Days  
Heating Degree Days 0 4  
Month to date heating degree days 59 153  
Since 1 July heating degree days 410 778  
Cooling Degree Days 0 1  
Month to date cooling degree days 71 19  
Year to date cooling degree days 108 27  
Growing Degree Days 14 (Base 50)    
Moisture  
Dew Point 51 °F    
Average Humidity 66    
Maximum Humidity 87    
Minimum Humidity 44    
Precipitation  
Precipitation 0.37 in 0.04 in 1.90 in (1991)
Month to date precipitation 0.37 1.03  
Year to date precipitation 0.37 2.03  
Since 1 July precipitation 1.63  
Snow  
Snow 0.00 in - - ()
Month to date snowfall 0.0  
Year to date snowfall 0.0  
Snow Depth 0.00 in    
Sea Level Pressure  
Sea Level Pressure 29.73 in    
Wind  
Wind Speed 4 mph (NW)    
Max Wind Speed 29 mph    
Max Gust Speed 37 mph    
Visibility 8 miles    
Events Rain    
T = Trace of Precipitation, MM = Missing Value Source: NWS Daily Summary

Daily Weather History Graph

Daily Weather History Graph

Search for Another Location

Airport or City:

Trip Planner

Search our weather history database for the weather conditions in past years. The results will help you decide how hot, cold, wet, or windy it might be!

Date:

Astronomy

Feb. 28, 2014 Rise Set
Actual Time 6:15 AM PST 5:41 PM PST
Civil Twilight 5:50 AM PST 6:06 PM PST
Nautical Twilight 5:21 AM PST 6:35 PM PST
Astronomical Twilight 4:52 AM PST 7:04 PM PST
Moon 5:32 AM PST (2/28) 5:23 PM PST (2/28)
Length of Visible Light 12h 16m
Length of Day
11h 26m
Waning Crescent, 0% of the Moon is Illuminated
Feb 28
Waning Crescent
Mar 1
New
Mar 8
First Quarter
Mar 16
Full
Mar 23
Last Quarter

Hourly Weather History & Observations

Time (PST) Temp. Dew Point Humidity Pressure Visibility Wind Dir Wind Speed Gust Speed Precip Events Conditions
12:53 AM 66.0 °F 46.9 °F 50% 29.82 in 10.0 mi SE 4.6 mph - 0.00 in Rain Light Rain
1:53 AM 64.9 °F 46.9 °F 52% 29.79 in 10.0 mi SW 3.5 mph - 0.00 in   Overcast
2:53 AM 64.0 °F 45.0 °F 50% 29.76 in 10.0 mi South 3.5 mph - N/A   Overcast
3:53 AM 64.9 °F 43.0 °F 45% 29.75 in 10.0 mi NE 3.5 mph - N/A   Overcast
4:53 AM 63.0 °F 46.9 °F 56% 29.75 in 10.0 mi Calm Calm - 0.00 in Rain Light Rain
5:53 AM 60.1 °F 48.9 °F 67% 29.77 in 9.0 mi WNW 4.6 mph - 0.02 in Rain Light Rain
6:53 AM 59.0 °F 50.0 °F 72% 29.80 in 8.0 mi Variable 5.8 mph - 0.01 in Rain Light Rain
7:53 AM 57.9 °F 52.0 °F 81% 29.81 in 10.0 mi NW 4.6 mph - 0.03 in Rain Light Rain
8:42 AM 57.0 °F 53.1 °F 87% 29.81 in 3.0 mi SW 4.6 mph - 0.04 in Rain Rain
8:53 AM 57.0 °F 53.1 °F 87% 29.80 in 5.0 mi WSW 3.5 mph - 0.05 in Rain Light Rain
9:12 AM 57.0 °F 53.1 °F 87% 29.80 in 10.0 mi Calm Calm - 0.01 in Rain Light Rain
9:36 AM 57.9 °F 54.0 °F 87% 29.79 in 5.0 mi NNE 3.5 mph - 0.02 in Rain Light Rain
9:53 AM 57.0 °F 53.1 °F 87% 29.80 in 5.0 mi Calm Calm - 0.04 in Rain Light Rain
10:07 AM 57.0 °F 52.0 °F 83% 29.78 in 1.8 mi North 4.6 mph - 0.04 in Rain Rain
10:12 AM 57.9 °F 54.0 °F 87% 29.79 in 3.0 mi NNW 6.9 mph - 0.05 in Rain Rain
10:53 AM 59.0 °F 53.1 °F 81% 29.76 in 10.0 mi NNW 6.9 mph - 0.06 in Rain Light Rain
11:48 AM 57.2 °F 53.6 °F 88% 29.74 in 5.0 mi WNW 6.9 mph - 0.02 in Rain Rain
11:53 AM 59.0 °F 54.0 °F 83% 29.74 in 7.0 mi WNW 5.8 mph - 0.02 in Rain Light Rain
12:40 PM 59.0 °F 55.0 °F 87% 29.70 in 4.0 mi NW 8.1 mph - 0.03 in Rain Light Rain
12:48 PM 59.0 °F 55.4 °F 88% 29.68 in 4.0 mi NW 10.4 mph 19.6 mph 0.04 in Rain Rain
12:53 PM 59.0 °F 55.0 °F 87% 29.68 in 3.0 mi NW 6.9 mph 19.6 mph 0.05 in Rain Rain
1:05 PM 59.0 °F 55.0 °F 87% 29.69 in 2.5 mi NW 11.5 mph - 0.03 in Rain Rain
1:14 PM 59.0 °F 55.9 °F 90% 29.69 in 4.0 mi NW 13.8 mph - 0.04 in Rain Light Rain
1:41 PM 60.1 °F 55.9 °F 86% 29.69 in 2.5 mi NW 11.5 mph - 0.09 in Rain Light Rain
1:48 PM 60.8 °F 57.2 °F 88% 29.68 in 8.0 mi NW 10.4 mph - 0.09 in Rain Light Rain
1:53 PM 62.1 °F 57.0 °F 84% 29.69 in 10.0 mi NNW 5.8 mph - 0.09 in Rain Light Rain
2:53 PM 64.9 °F 59.0 °F 81% 29.63 in 10.0 mi Variable 3.5 mph - 0.00 in   Scattered Clouds
3:53 PM 72.0 °F 45.0 °F 38% 29.58 in 10.0 mi SSW 21.9 mph 36.8 mph N/A   Scattered Clouds
4:53 PM 64.9 °F 50.0 °F 58% 29.61 in 6.0 mi SW 20.7 mph 31.1 mph 0.01 in Rain Light Rain
5:36 PM 60.1 °F 50.0 °F 69% 29.66 in 10.0 mi North 15.0 mph - 0.03 in   Mostly Cloudy
5:53 PM 60.1 °F 48.9 °F 67% 29.66 in 10.0 mi North 15.0 mph - 0.03 in   Mostly Cloudy
6:53 PM 59.0 °F 50.0 °F 72% 29.70 in 10.0 mi North 9.2 mph 18.4 mph 0.00 in Rain Light Rain
7:53 PM 57.0 °F 48.0 °F 72% 29.72 in 10.0 mi South 8.1 mph - 0.01 in   Mostly Cloudy
8:53 PM 57.0 °F 46.9 °F 69% 29.73 in 10.0 mi NNE 6.9 mph - N/A   Clear
9:53 PM 57.0 °F 46.9 °F 69% 29.74 in 10.0 mi NNE 9.2 mph - 0.00 in Rain Light Rain
10:53 PM 57.0 °F 46.0 °F 67% 29.74 in 10.0 mi NNE 10.4 mph - 0.00 in Rain Light Rain
11:53 PM 55.9 °F 46.9 °F 72% 29.75 in 10.0 mi WNW 4.6 mph - 0.00 in Rain Light Rain